Location: Helion Bumpstead
(52.0500°N, 0.4000°E)
Time: 21:56:49
(UTC+00:00)

Cosmos 1725 Rocket - Pass Details

Date: 19 February 2026
Orbit: 962 x 989 km, 82.9° (Epoch: 11 March)

Event Time Altitude Azimuth Distance (km) Brightness Sun altitude
Rises 18:23:16 0° 342° (NNW) 3,685 7.2 -10.4°
Reaches altitude 10° 18:26:17 10° 328° (NNW) 2,738 6.7 -10.9°
Maximum altitude 18:31:00 23° 279° (W) 1,955 6.6 -11.6°
Drops below altitude 10° 18:35:44 10° 230° (SW) 2,737 7.2 -12.3°
Sets 18:38:45 0° 217° (SW) 3,684 7.6 -12.8°
